CW4610 Weather Reports


Display with metric or nautical units.
time (UTC)temp
F
wind
direction
speed
MPH
gust
MPH
rain 1hr
in
rain 24hr
in
rain mn
in
humidity
%
barometer
mb
20260510065020 54 0 2.0 3.0 0.00 0.00 0.00 81 1015.5
20260510064019 54 338 3.0 5.0 0.00 0.00 0.00 81 1015.5
20260510063019 55 293 2.0 4.0 0.00 0.00 0.00 81 1015.7
20260510062019 55 0 3.0 5.0 0.00 0.00 0.00 80 1015.7
20260510061036 55 0 2.0 3.0 0.00 0.00 0.00 80 1015.9
20260510060020 55 0 2.0 3.0 0.00 0.00 0.00 79 1015.8
20260510055018 56 203 0.0 1.0 0.00 0.00 0.00 78 1015.7
20260510054018 56 113 1.0 2.0 0.00 0.00 0.00 78 1015.7
20260510053018 56 90 2.0 3.0 0.00 0.00 0.00 77 1015.7
20260510052019 56 68 2.0 4.0 0.00 0.00 0.00 77 1015.7
20260510051018 57 68 1.0 2.0 0.00 0.00 0.00 76 1015.6
20260510050021 57 45 1.0 4.0 0.00 0.00 0.00 75 1015.5
20260510045018 58 90 2.0 6.0 0.00 0.00 0.00 74 1015.5
20260510044019 58 68 2.0 8.0 0.00 0.00 0.00 73 1015.5
20260510043020 58 180 3.0 7.0 0.00 0.00 0.00 72 1015.3
20260510042018 59 68 3.0 7.0 0.00 0.00 0.00 71 1015.3
20260510041018 60 68 2.0 4.0 0.00 0.00 0.00 70 1015.2
20260510040019 60 45 2.0 3.0 0.00 0.00 0.00 68 1015.1
20260510035038 61 135 4.0 8.0 0.00 0.00 0.00 68 1015.1
20260510034030 61 248 2.0 4.0 0.00 0.00 0.00 67 1015.0
20260510033020 61 158 2.0 4.0 0.00 0.00 0.00 67 1015.0
20260510032026 62 180 6.0 11.0 0.00 0.00 0.00 66 1015.0
20260510031023 62 180 10.0 17.0 0.00 0.00 0.00 66 1015.0
20260510030021 63 180 10.0 16.0 0.00 0.00 0.00 65 1015.0
20260510025020 63 180 9.0 15.0 0.00 0.00 0.00 64 1015.0
20260510024021 64 180 12.0 19.0 0.00 0.00 0.00 62 1015.0
20260510023100 65 180 9.0 17.0 0.00 0.00 0.00 61 1015.0
20260510022020 66 180 12.0 17.0 0.00 0.00 0.00 60 1015.0
20260510021020 67 180 11.0 19.0 0.00 0.00 0.00 59 1015.1
20260510020019 68 180 7.0 15.0 0.00 0.00 0.00 58 1015.0
20260510015022 68 180 7.0 12.0 0.00 0.00 0.00 57 1015.0
20260510014020 69 180 7.0 12.0 0.00 0.00 0.00 55 1015.0
20260510013040 70 180 7.0 12.0 0.00 0.00 0.00 54 1015.1
20260510012044 71 203 6.0 9.0 0.00 0.00 0.00 53 1015.1
20260510011020 71 180 7.0 12.0 0.00 0.00 0.00 52 1015.1
20260510010031 71 180 6.0 9.0 0.00 0.00 0.00 51 1015.2
20260510005019 72 203 6.0 9.0 0.00 0.00 0.00 50 1015.2
20260510004020 72 225 5.0 9.0 0.00 0.00 0.00 50 1015.3
20260510003040 72 180 4.0 6.0 0.00 0.00 0.00 49 1015.4
20260510002019 73 203 6.0 10.0 0.00 0.00 0.00 50 1015.5
20260510001020 73 180 5.0 9.0 0.00 0.00 0.00 48 1015.5
20260510000019 73 180 6.0 11.0 0.00 0.00 0.00 48 1015.6
20260509235039 73 225 3.0 7.0 0.00 0.00 0.00 48 1015.6
20260509234039 73 180 3.0 6.0 0.00 0.00 0.00 45 1015.9
20260509233020 74 225 2.0 7.0 0.00 0.00 0.00 46 1016.0
20260509232019 74 225 3.0 7.0 0.00 0.00 0.00 45 1016.1
20260509231020 75 315 3.0 6.0 0.00 0.00 0.00 45 1016.5
20260509230038 75 225 3.0 6.0 0.00 0.00 0.00 42 1016.6
20260509225019 76 225 3.0 8.0 0.00 0.00 0.00 42 1016.7
20260509224021 76 225 3.0 7.0 0.00 0.00 0.00 42 1017.0
20260509223025 75 225 3.0 7.0 0.00 0.00 0.00 42 1017.1
20260509222019 75 225 5.0 9.0 0.00 0.00 0.00 42 1017.2
20260509221019 75 225 4.0 7.0 0.00 0.00 0.00 45 1017.5
20260509220021 75 270 3.0 5.0 0.00 0.00 0.00 44 1017.7
20260509215019 75 225 4.0 7.0 0.00 0.00 0.00 44 1017.7
20260509214031 75 225 4.0 6.0 0.00 0.00 0.00 44 1018.1
20260509213039 74 225 4.0 7.0 0.00 0.00 0.00 45 1018.2
20260509212039 74 225 5.0 8.0 0.00 0.00 0.00 45 1018.2
20260509211021 74 225 5.0 8.0 0.00 0.00 0.00 48 1018.5
20260509210020 74 225 5.0 9.0 0.00 0.00 0.00 48 1018.6
20260509205019 73 248 2.0 5.0 0.00 0.00 0.00 50 1018.7
20260509204019 72 293 4.0 7.0 0.00 0.00 0.00 50 1018.9
20260509203020 72 293 3.0 6.0 0.00 0.00 0.00 50 1019.1
20260509202019 72 225 4.0 9.0 0.00 0.00 0.00 51 1019.2
20260509201019 72 225 4.0 7.0 0.00 0.00 0.00 51 1019.4
20260509200046 71 315 3.0 6.0 0.00 0.00 0.00 53 1019.7
20260509195019 70 225 2.0 5.0 0.00 0.00 0.00 53 1019.7
20260509194019 69 225 4.0 6.0 0.00 0.00 0.00 54 1019.7
20260509193019 68 180 3.0 6.0 0.00 0.00 0.00 56 1019.8
20260509192018 66 158 3.0 5.0 0.00 0.00 0.00 61 1019.8
20260509191040 65 23 2.0 5.0 0.00 0.00 0.00 63 1020.0
20260509190019 65 45 2.0 5.0 0.00 0.00 0.00 64 1020.2
20260509185019 65 315 2.0 5.0 0.00 0.00 0.00 65 1020.3
20260509184030 65 293 3.0 5.0 0.00 0.00 0.00 68 1020.4
20260509183019 64 0 3.0 5.0 0.00 0.00 0.00 69 1020.6
20260509182019 63 315 3.0 5.0 0.00 0.00 0.00 70 1020.7
20260509181019 63 0 2.0 6.0 0.00 0.00 0.00 73 1020.8
20260509180020 63 315 3.0 6.0 0.00 0.00 0.00 70 1020.8
20260509175019 63 315 3.0 7.0 0.00 0.00 0.00 72 1020.8
20260509174039 62 315 1.0 3.0 0.00 0.00 0.00 74 1020.8
20260509173020 61 248 1.0 3.0 0.00 0.00 0.00 71 1021.0
20260509172107 60 225 2.0 4.0 0.00 0.00 0.00 75 1021.0
20260509171019 60 270 1.0 4.0 0.00 0.00 0.00 73 1021.1
20260509170018 60 338 1.0 4.0 0.00 0.00 0.00 77 1021.1
20260509165042 59 293 2.0 4.0 0.00 0.00 0.00 78 1021.0
20260509164018 59 225 2.0 6.0 0.00 0.00 0.00 79 1021.0
20260509163019 58 225 1.0 4.0 0.00 0.00 0.00 82 1021.2
20260509162019 57 248 1.0 4.0 0.00 0.00 0.00 84 1021.3
20260509161200 57 180 1.0 3.0 0.00 0.00 0.00 85 1021.3
20260509160028 56 248 1.0 2.0 0.00 0.00 0.00 86 1021.3
20260509155024 56 23 1.0 2.0 0.00 0.00 0.00 85 1021.3
20260509154027 55 225 1.0 3.0 0.00 0.00 0.00 87 1021.4
20260509153019 55 45 0.0 2.0 0.00 0.00 0.00 87 1021.4
20260509152019 55 45 1.0 2.0 0.00 0.00 0.00 87 1021.4
20260509151019 54 45 1.0 2.0 0.00 0.00 0.00 88 1021.4
20260509150019 54 23 1.0 2.0 0.00 0.00 0.00 88 1021.4
20260509145039 54 45 0.0 2.0 0.00 0.00 0.00 88 1021.3
20260509144018 54 113 0.0 2.0 0.00 0.00 0.00 89 1021.4
20260509143018 54 135 0.0 2.0 0.00 0.00 0.00 90 1021.4
20260509142032 53 135 1.0 2.0 0.00 0.00 0.00 90 1021.4
20260509141019 53 135 1.0 2.0 0.00 0.00 0.00 90 1021.4
20260509140018 53 113 1.0 2.0 0.00 0.00 0.00 91 1021.4
20260509135018 53 180 1.0 2.0 0.00 0.00 0.00 91 1021.4
20260509134038 52 135 1.0 3.0 0.00 0.00 0.00 91 1021.3
20260509133018 52 135 2.0 3.0 0.00 0.00 0.00 91 1021.3
20260509132018 52 135 1.0 2.0 0.00 0.00 0.00 91 1021.3
20260509131018 52 68 2.0 3.0 0.00 0.00 0.00 91 1021.3
20260509130038 52 90 1.0 2.0 0.00 0.00 0.00 91 1021.4
20260509125038 52 90 1.0 2.0 0.00 0.00 0.00 91 1021.4
20260509124038 52 113 3.0 4.0 0.00 0.00 0.00 91 1021.5
20260509123018 52 90 2.0 3.0 0.00 0.00 0.00 91 1021.7
20260509122038 52 68 1.0 2.0 0.00 0.00 0.00 92 1021.7
20260509121018 52 45 0.0 1.0 0.00 0.00 0.00 92 1021.6
20260509120019 52 45 1.0 2.0 0.00 0.00 0.00 92 1021.7
20260509115018 52 68 1.0 2.0 0.00 0.00 0.00 91 1021.7
20260509114017 52 68 1.0 2.0 0.00 0.00 0.00 91 1021.6
20260509113018 52 113 1.0 2.0 0.00 0.00 0.00 91 1021.6
20260509112018 52 113 1.0 2.0 0.00 0.00 0.00 90 1021.6
20260509111018 52 113 1.0 2.0 0.00 0.00 0.00 90 1021.5
20260509110038 52 113 1.0 2.0 0.00 0.00 0.00 89 1021.6
20260509105058 52 113 1.0 2.0 0.00 0.00 0.00 89 1021.6
20260509104018 52 113 2.0 3.0 0.00 0.00 0.00 88 1021.7
20260509103037 53 113 2.0 2.0 0.00 0.00 0.00 88 1021.7
20260509102019 53 135 2.0 3.0 0.00 0.00 0.00 88 1021.7
20260509101058 53 135 2.0 3.0 0.00 0.00 0.00 88 1021.6
20260509100021 53 113 1.0 2.0 0.00 0.00 0.00 88 1021.7
20260509095020 53 113 0.0 1.0 0.00 0.00 0.00 88 1021.7
20260509094020 53 115 0.0 0.0 0.00 0.00 0.00 88 1021.6
20260509093021 53 90 0.0 1.0 0.00 0.00 0.00 88 1021.6
20260509092020 53 90 1.0 2.0 0.00 0.00 0.00 88 1021.6
20260509091040 53 113 2.0 4.0 0.00 0.00 0.00 87 1021.6
20260509090120 53 113 3.0 4.0 0.00 0.00 0.00 87 1021.7
20260509085019 53 113 3.0 5.0 0.00 0.00 0.00 87 1021.7
20260509084019 53 90 2.0 3.0 0.00 0.00 0.00 86 1021.8
20260509083020 53 113 2.0 4.0 0.00 0.00 0.00 86 1021.8
20260509082020 53 90 2.0 5.0 0.00 0.00 0.00 86 1021.7
20260509081020 53 113 2.0 5.0 0.00 0.00 0.00 86 1021.5
20260509080019 53 113 1.0 2.0 0.00 0.00 0.00 86 1021.5
20260509075039 53 90 2.0 5.0 0.00 0.00 0.00 85 1021.5
20260509074019 53 90 3.0 6.0 0.00 0.00 0.00 84 1021.5
20260509073019 53 90 2.0 5.0 0.00 0.00 0.00 84 1021.6
20260509072020 53 113 3.0 4.0 0.00 0.00 0.00 84 1021.6
20260509071020 53 113 3.0 5.0 0.00 0.00 0.00 83 1021.7
20260509070020 54 113 3.0 5.0 0.00 0.00 0.00 83 1021.6